Volver al catálogo

STARLINK-31942

ActivoComunicacionesVLEO
NORAD 59899·PAYLOAD·🇺🇸 United States

Lanzado May 28, 2024 desde Cape Canaveral Space Force Station

Loading…

Próximos Pases (próximas 24 horas)

TLE

ActualizadoSource: CelesTrak SupGP

Época: Sep 15, 2026, 02:27 UTC

1 59899C 24100Q   26258.10256944  .00046617  00000+0  16888-2 0  2585
2 59899  42.9996 135.5381 0001375 278.8666 198.2174 15.27548127    11

Sigue STARLINK-31942 en tiempo real con AllMySat

Download on the App Store